Regional Weather Roundup
Issued by NWS Grand Forks, ND

Home | Current Version | Previous Version | Text Only | Print | Product List | Glossary On
Versions: 1 2 3 4 5 6 7 8 9 10 11 12 13 14 15 16 17 18 19 20 21 22 23 24 25 26 27 28 29 30 31 32 33 34 35 36 37 38 39 40 41 42 43 44 45 46 47 48 49 50
000
ASUS43 KFGF 260731
RWRFGF
PRAIRIE TO PINES  WEATHER ROUNDUP
NATIONAL WEATHER SERVICE EASTERN NORTH DAKOTA/GRAND FORKS ND
200 AM CDT FRI MAY 26 2017

 **SATELLITE DATA USED TO AUGMENT SKY COVER AT AUTOMATED STATIONS**
 *****  WEATHER ACROSS EASTERN NORTH DAKOTA  *****

CITY           SKY/WX    TMP DP  RH WIND       PRES   REMARKS
GRAND FORKS    FAIR      53  50  89 SW5       29.56R
GRAND FRKS AFB FAIR      52  48  86 W7        29.56R
DEVILS LAKE    FAIR      52  45  77 W8        29.57S
FARGO          FAIR      59  54  83 S12       29.58S
WAHPETON ARPT  FAIR      55  50  82 SE7       29.61S
$$

 ***** WEATHER ACROSS CENTRAL AND WESTERN NORTH DAKOTA  *****

CITY           SKY/WX    TMP DP  RH WIND       PRES   REMARKS
BISMARCK       FAIR      52  44  74 SW6       29.65R
MINOT          FAIR      54  44  69 SW12      29.57R
JAMESTOWN      FAIR      52  45  77 W7        29.61R
MINOT AFB      FAIR      49  43  80 W9        29.55S
GARRISON         N/A     51  44  77 W15       29.60R
WILLISTON      MOCLDY    50  42  74 W13       29.65R
DICKINSON      CLOUDY    48  38  68 W14       29.69R
HETTINGER      FAIR      46  40  79 W14       29.74R
$$

 *****  OTHER AIRPORT OBSERVATIONS IN OUR AREA  *****

CITY           SKY/WX    TMP DP  RH WIND       PRES   REMARKS
WALHALLA       NOT AVBL
GRAFTON AIRPOR FAIR      48  48 100 SW7       29.57R
VALLEY CITY AR FAIR      50  48  93 W8        29.63R
CANDO          NOT AVBL
CAVALIER APRT  FAIR      55  46  71 SW7       29.53R
GWINNER        SUNNY     55  46  71 MISG      29.61S
SHEYENNE NWR     N/A     53  52  97 W3        29.95S
ROLLA          FAIR      45  45 100 SW7       29.55R
 ***** THE ABOVE OBSERVATIONS ARE NON NWS ARE NOT QUALITY
       CONTROLLED AND MAY MIS-REPORT RAIN FOR SNOW...
$$

  *****  WEATHER ACROSS NORTHERN MINNESOTA  *****

CITY           SKY/WX    TMP DP  RH WIND       PRES   REMARKS
FLAG ISLAND    CLOUDY    57  52  82 S17       29.57S
WARROAD        FAIR      59  52  77 S12G17    29.59S
ROSEAU         FAIR      59  52  77 S14       29.57S
HALLOCK        FAIR      55  48  76 S12       29.54R
THF RVR FALLS  FAIR      57  50  77 S8        29.59S
BAUDETTE       CLOUDY    59  50  72 SE12      29.61F
WASKISH        CLOUDY    59  52  77 SE9G17    29.62F
CROOKSTON      FAIR      54  48  82 S6        29.58R
STEPHEN NDAWN    N/A     55  50  82 S10         N/A
GREENBUSH NDAW   N/A     57  48  72 S12         N/A
$$
  *****  WEATHER ACROSS CENTRAL AND WEST MINNESOTA  *****

CITY           SKY/WX    TMP DP  RH WIND       PRES   REMARKS
FOSSTON        FAIR      57  50  77 S9        29.60F
BEMIDJI        MOCLDY    56  50  80 SE8       29.63S
PARK RAPIDS    LGT RAIN  60  50  69 SE12      29.64S
ELBOW LAKE     PTSUNNY   54  52  93 E8        29.62F
WADENA         CLOUDY    57  52  82 S6        29.64S
DETROIT LAKES  FAIR      55  52  88 SE7       29.63S
MOORHEAD       FAIR      57  52  82 S10       29.60S
FERGUS FALLS   FAIR      57  52  82 S9        29.61S
MORRIS MN      FAIR      54  52  94 SE9       29.62S
STAPLES        CLOUDY    57  52  82 S7        29.65S
$$
  *****  WEATHER ELSEWHERE ACROSS MINNESOTA  *****

CITY           SKY/WX    TMP DP  RH WIND       PRES   REMARKS
DULUTH         LGT RAIN  52  45  77 SE5       29.74R
INTRNTL FALLS  CLOUDY    58  46  64 SE8       29.68R
ELY            CLOUDY    55  43  62 SE3       29.72S
CLOQUET        RAIN      46  43  87 E5        29.74F
WHEATON        FAIR      52  50  93 SE3       29.63S
BRAINERD       CLOUDY    56  54  93 SE7       29.68S
HIBBING        LGT RAIN  49  49 100 CALM      29.72S
ALEXANDRIA     FAIR      58  51  78 S9        29.65S
SAINT CLOUD    CLOUDY    59  54  83 SE5       29.67F
MINNEAPOLIS    CLOUDY    62  53  72 SE6       29.69S
$$

  *****  WEATHER ACROSS SOUTH DAKOTA  *****

CITY           SKY/WX    TMP DP  RH WIND       PRES   REMARKS
SIOUX FALLS    MOCLDY    55  52  89 CALM      29.65F
BROOKINGS      FAIR      53  51  93 SE3       29.65F
WATERTOWN      FAIR      50  49  96 SW5       29.65R
HURON          FAIR      52  46  80 NW9       29.66R
SISSETON         N/A     59  54  83 SW6       29.60S
ABERDEEN       FAIR      56  42  59 NW9       29.65R
MITCHELL       FAIR      58  48  69 W9        29.67R
PIERRE         MOCLDY    56  43  61 NW13      29.73R
MOBRIDGE       FAIR      51  43  74 NW9       29.67S
RAPID CITY     FAIR      44  35  70 NW6       29.83R
$$

  *****  SOME WEATHER IN NEARBY STATES *****

CITY           SKY/WX    TMP DP  RH WIND       PRES   REMARKS
GLASGOW MT     FAIR      44  38  79 W14       29.75R
GREAT FALLS MT FAIR      45  38  76 NW9       29.91S
CHEYENNE WY    FAIR      44  36  73 N12       29.93R
SCOTTSBLUFF NE FAIR      50  38  63 W8        29.87R
OMAHA NE       CLOUDY    66  55  67 SE7       29.65F
DES MOINES IA  FAIR      63  52  67 E5        29.70F
DAVENPORT IA   FAIR      57  53  86 E7        29.77S
CHICAGO IL     FAIR      53  49  86 CALM      29.78R
EAU CLAIRE WI  LGT RAIN  60  55  83 S8        29.75R
LA CROSSE WI   MOCLDY    61  58  90 E5        29.75F
$$

  *****  SOME NATIONAL WEATHER *****

CITY           SKY/WX    TMP DP  RH WIND       PRES   REMARKS
LA GUARDIA NY  LGT RAIN  57  54  89 N9        29.46R
RALEIGH NC     FAIR      60  54  80 W8        29.80R
ATLANTA GA     FAIR      59  51  75 W6        29.95F
NEW ORLEANS LA FAIR      70  63  78 S7        29.93S
OKLAHOMA CITY  MOCLDY    74  61  63 S14       29.54F
ALBUQUERQUE NM FAIR      69   9   9 SW15G23   29.95R
SALT LAKE CITY FAIR      58  35  42 CALM      29.72F
LOS ANGELES CA MOCLDY    61  54  77 W7        29.92S
BOISE ID       CLOUDY    53  41  63 NW6       29.79R
SEATTLE WA     FAIR      60  48  64 N6        29.90R
$$

*** WEATHER ACROSS MANITOBA...SASKATCHEWAN AND ONTARIO ***
                ***ONTARIO***

CITY           SKY/WX    TMP DP  RH WIND       PRES   REMARKS
GERALDTON      CLEAR     45  41  87 CALM      29.78S
THUNDER BAY    PTCLDY    43  41  93 W5        29.77S
SIOUX LOOKOUT  MOCLDY    55  45  67 SE6       29.69R
TORONTO        DRIZZLE   55  54  94 N5        29.56S FOG
BIG TROUT LK   CLEAR     54  41  62 SE10      29.71S
PICKLE LAKE    NOT AVBL
DRYDEN         LGT RAIN  57  48  72 S10       29.67S
KENORA         LGT RAIN  57  52  82 S12       29.62F
$$
                *** MANITOBA***

CITY           SKY/WX    TMP DP  RH WIND       PRES   REMARKS
BRANDON        CLEAR     50  43  76 W15       29.48R
DAUPHIN        CLEAR     50  45  81 SW8       29.39S
ISLAND LAKE    NOT AVBL
PILOT MOUND      N/A     48  43  81 SW5         N/A
THE PAS        LGT RAIN  48  46  93 NE7       29.37F
THOMPSON       LGT RAIN  52  45  76 NE2       29.54S
WINNIPEG       MOCLDY    57  50  77 S15       29.49S
LYNN LAKE      CLOUDY    48  46  93 E7        29.54S
CHURCHILL      MOCLDY    34  34 100 NE12G18   29.69R
GILLAM         CLOUDY    57  32  38 SE6       29.58S
$$
                ***SASKATCHEWAN***

CITY           SKY/WX    TMP DP  RH WIND       PRES   REMARKS
ESTEVAN        CLOUDY    52  46  82 W15       29.55R
KINDERSLEY     MOCLDY    43  41  93 W6        29.71S
LLOYDMINSTER   CLEAR     41  41 100 W6        29.70R
PRINCE ALBERT  CLOUDY    50  46  87 NW15      29.48R
REGINA         CLOUDY    48  45  87 W21       29.52S
YORKTON          N/A     50  46  87 W12G17    29.40F
N. BATTLEFORD  CLEAR     46  45  93 NW14G21   29.66R
LA RONGE       LGT RAIN  50  48  93 NW8       29.50S
SASKATOON      CLOUDY    48  45  87 NW16G22   29.57R
SWIFT CURRENT  MOCLDY    45  41  87 NW21G28   29.66S
$$
NOTE: THESE ARE AUTOMATED STATIONS WITH LIMITED QUALITY CONTROL
      "FAIR" INDICATES FEW OR NO CLOUDS BELOW 12,000 FEET WITH NO
      SIGNIFICANT WEATHER AND/OR OBSTRUCTIONS TO VISIBILITY.
      SKY/WX - SKY CONDITION AND SIGNIFICANT WEATHER.
      TMP - AIR TEMPERATURE.    DP   - DEWPOINT TEMPERATURE.
      RH  - RELATIVE HUMIDITY.  PRES - PRESSURE.
      HX  - HEAT INDEX.         WCI  - WIND CHILL INDEX.
$



USA.gov is the U.S. government's official web portal to all federal, state and local government web resources and services.